Location: Unspecified
(42.9300°N, 71.1866°W)
Time: 10:15:44
(UTC-04:00)

Envisat - Visible Passes

Search period start: 05 May 2016 00:00
Search period end: 15 May 2016 00:00
Orbit: 764 x 766 km, 98.3° (Epoch: 05 May)

Date Brightness Start Highest point End Pass type
(mag) Time Alt. Az. Time Alt. Az. Time Alt. Az.
05 May 3.6 20:41:27 10° SE 20:46:07 41° ENE 20:50:51 10° N visible
05 May 4.8 22:21:39 12° SW 22:25:15 25° W 22:29:24 10° NW visible
06 May 3.6 21:44:28 16° S 21:48:22 54° W 21:53:22 10° NNW visible
07 May 3.0 21:07:18 14° SSE 21:11:41 70° ENE 21:16:45 10° N visible
07 May 5.4 22:48:31 10° WSW 22:51:13 14° W 22:53:54 10° WNW visible
08 May 3.9 20:30:43 10° SE 20:35:12 33° ENE 20:39:42 10° N visible
08 May 4.5 22:10:19 13° SSW 22:14:10 31° W 22:18:41 10° NNW visible
09 May 3.2 21:33:09 15° S 21:37:21 68° WSW 21:42:27 10° NNW visible
10 May 3.2 20:55:58 11° SSE 21:00:44 56° ENE 21:05:43 10° N visible
10 May 5.2 22:36:40 10° SW 22:40:05 18° W 22:43:32 10° NW visible
11 May 4.2 20:20:07 10° ESE 20:24:19 27° ENE 20:28:30 10° N visible
11 May 4.1 21:59:00 13° SSW 22:03:08 39° W 22:07:53 10° NNW visible
12 May 3.0 21:21:49 13° SSE 21:26:22 86° W 21:31:29 10° NNW visible
13 May 3.5 20:45:01 10° SE 20:49:48 44° ENE 20:54:37 10° N visible
13 May 5.0 22:25:03 10° SW 22:28:59 23° W 22:32:59 10° NW visible
14 May 3.7 21:47:41 13° S 21:52:05 49° W 21:57:02 10° NNW visible
